Weather History for KUIN - March, 2013

Change the Weather History Date:

Saturday, March 2, 2013

  Actual Average Record
Temperature  
Mean Temperature 23 °F 36 °F  
Max Temperature 30 °F 45 °F 77 °F (1976)
Min Temperature 15 °F 28 °F -2 °F (1980)
Degree Days  
Heating Degree Days 42 29  
Month to date heating degree days 79 58  
Since 1 July heating degree days 4190 4400  
Cooling Degree Days 0 0  
Month to date cooling degree days 0 0  
Year to date cooling degree days 0 0  
Moisture  
Dew Point 16 °F    
Average Humidity 71    
Maximum Humidity 88    
Minimum Humidity 53    
Precipitation  
Precipitation T in 0.08 in 1.25 in (1970)
Month to date precipitation 0.07 0.16  
Year to date precipitation 5.54 3.56  
Sea Level Pressure  
Sea Level Pressure 30.26 in    
Wind  
Wind Speed 8 mph (NW)    
Max Wind Speed 18 mph    
Max Gust Speed 21 mph    
Visibility 10 miles    
Events      
T = Trace of Precipitation, MM = Missing Value Source: NWS Daily Summary

Daily Weather History Graph

Daily Weather History Graph

Search for Another Location

Airport or City:

Trip Planner

Search our weather history database for the weather conditions in past years. The results will help you decide how hot, cold, wet, or windy it might be!

Date:

Astronomy

Mar. 02, 2013 Rise Set
Actual Time 6:36 AM CST 5:58 PM CST
Civil Twilight 6:09 AM CST 6:25 PM CST
Nautical Twilight 5:37 AM CST 6:56 PM CST
Astronomical Twilight 5:06 AM CST 7:27 PM CST
Moon 11:37 PM CST (3/2) 9:04 AM CST (3/2)
Length of Visible Light 12h 16m
Length of Day
11h 21m
Waning Gibbous, 74% of the Moon is Illuminated
Mar 2
Waning Gibbous
Mar 4
Last Quarter
Mar 11
New
Mar 19
First Quarter
Mar 27
Full

Hourly Weather History & Observations

Time (CST) Temp. Windchill Dew Point Humidity Pressure Visibility Wind Dir Wind Speed Gust Speed Precip Events Conditions
12:02 AM 24.8 °F 16.1 °F 21.2 °F 86% 30.23 in 7.0 mi North 8.1 mph - N/A   Overcast
12:54 AM 25.0 °F 16.3 °F 21.0 °F 85% 30.26 in 10.0 mi North 8.1 mph - N/A   Overcast
1:54 AM 25.0 °F 16.3 °F 19.9 °F 81% 30.26 in 10.0 mi NNW 8.1 mph - N/A   Overcast
2:54 AM 24.1 °F 16.0 °F 21.0 °F 88% 30.25 in 10.0 mi NW 6.9 mph - N/A   Overcast
3:54 AM 24.1 °F 13.7 °F 19.9 °F 84% 30.25 in 6.0 mi NNW 10.4 mph - N/A   Overcast
4:54 AM 23.0 °F 13.1 °F 19.0 °F 85% 30.25 in 9.0 mi NNW 9.2 mph - 0.00 in   Overcast
5:54 AM 23.0 °F 13.1 °F 19.0 °F 85% 30.27 in 10.0 mi NW 9.2 mph - N/A   Overcast
6:54 AM 23.0 °F 12.4 °F 18.0 °F 81% 30.28 in 10.0 mi NW 10.4 mph - N/A   Overcast
7:54 AM 21.9 °F 12.5 °F 16.0 °F 78% 30.29 in 10.0 mi NW 8.1 mph - N/A   Clear
8:54 AM 24.1 °F 13.1 °F 16.0 °F 71% 30.29 in 10.0 mi NW 11.5 mph - N/A   Clear
9:54 AM 25.0 °F 13.6 °F 17.1 °F 72% 30.30 in 10.0 mi NW 12.7 mph - N/A   Clear
10:54 AM 26.1 °F 13.1 °F 17.1 °F 69% 30.30 in 10.0 mi NW 17.3 mph - N/A   Clear
11:54 AM 28.0 °F 17.5 °F 17.1 °F 63% 30.30 in 10.0 mi NW 12.7 mph - N/A   Clear
12:54 PM 28.9 °F 19.2 °F 16.0 °F 58% 30.27 in 10.0 mi NW 11.5 mph - N/A   Clear
1:54 PM 28.9 °F 19.8 °F 17.1 °F 61% 30.25 in 10.0 mi WNW 10.4 mph - N/A   Clear
2:54 PM 30.0 °F 22.4 °F 15.1 °F 54% 30.25 in 10.0 mi WNW 8.1 mph - N/A   Clear
3:54 PM 28.9 °F 18.6 °F 15.1 °F 56% 30.25 in 10.0 mi WNW 12.7 mph - N/A   Clear
4:54 PM 28.0 °F 18.6 °F 14.0 °F 56% 30.26 in 10.0 mi NW 10.4 mph - N/A   Clear
5:54 PM 24.1 °F 16.0 °F 12.0 °F 60% 30.26 in 10.0 mi NNW 6.9 mph - N/A   Clear
6:54 PM 23.0 °F - 12.0 °F 63% 30.27 in 10.0 mi Calm Calm - N/A   Clear
7:54 PM 21.9 °F 14.5 °F 12.0 °F 66% 30.26 in 10.0 mi NW 5.8 mph - N/A   Clear
8:54 PM 19.9 °F 13.4 °F 10.9 °F 68% 30.26 in 10.0 mi NW 4.6 mph - N/A   Clear
9:54 PM 19.9 °F - 10.0 °F 65% 30.25 in 10.0 mi Calm Calm - N/A   Clear
10:54 PM 18.0 °F 12.7 °F 10.0 °F 71% 30.25 in 10.0 mi NW 3.5 mph - N/A   Clear
11:54 PM 16.0 °F - 9.0 °F 74% 30.24 in 10.0 mi Calm Calm - N/A   Clear